Location: Unspecified
(0.0000°N, 0.0000°E)
Time: 11:28:14
(UTC+00:00)

Cosmos 2333 Rocket - Pass Details

Date: 22 December 2025
Orbit: 838 x 865 km, 70.8° (Epoch: 17 January)

Event Time Altitude Azimuth Distance (km) Brightness Sun altitude
Exits shadow 03:40:48 18° 36° (NE) 1,966 4.1 -31.3°
Maximum altitude 03:43:30 25° 74° (ENE) 1,636 4.0 -30.7°
Drops below altitude 10° 03:48:03 10° 128° (SE) 2,463 5.5 -29.6°
Sets 03:50:54 0° 141° (SE) 3,396 6.3 -29.0°
